Weather in Chernoluchye

Russia / Omsk Oblast     55°14′10″N   73°01′05″E
temp.,
°C
wind,
m/s
gust,
m/s
humid.,
%
clouds,
%
prec.,
mm/h
press.,
hPa
HPBL,
m
13 may, thu
thu1300:00+12nnw51249100 0.0 1022396
03:00+9nnw4851100 0.0 1022200
06:00+8nnw385334 0.0 1023175
09:00+12nnw4841100 0.0 1022616
12:00+8w2380100 1.6 1022252
15:00+11wsw346649 0.3 1020300
18:00+15nnw5107079 0.4 1019633
21:00+13wnw348734 0.3 102054
14 may, fri
fri1400:00+11nne33916 0.3 102241
03:00+9nne33915 0.0 102437
06:00+8nne389018 0.0 1026186
09:00+12nne45650 0.0 1027639
12:00+17n34364 0.0 10281101
15:00+20nnw34265 0.0 10271375
18:00+21wnw342569 0.0 10261367
21:00+16w33425 0.0 102620
15 may, sat
sat1500:00+14sw46465 0.0 102580
03:00+13sw4105143 0.1 1024175
06:00+13wsw4126356 0.8 1023227
09:00+20wsw7114819 0.3 1022515
12:00+27w68375 0.3 10201057
15:00+29w79315 0.0 10193053
18:00+29wnw583039 0.0 10173096
21:00+22w45495 0.0 101749
16 may, sun
sun1600:00+20wsw48525 0.0 101698
03:00+16nne3573100 0.5 1016100
06:00+16wnw3776100 0.6 1017181
09:00+20nnw57600 0.0 1018589
12:00+25nnw464314 0.0 10171377
15:00+27nw45375 0.0 10162242
18:00+27nw563436 0.0 10161924
21:00+22w234910 0.0 101516
17 may, mon
mon1700:00+20wsw465386 0.0 101590
03:00+18wsw495983 0.0 1014142
06:00+18wsw412625 0.0 1014188
09:00+24w584270 0.0 1014355
12:00+29wnw69315 0.0 10131423
15:00+30wnw79244 0.0 10133066
18:00+29wnw57275 0.0 10123140
21:00+24wsw33405 0.0 101119